Simultaneous Nadir Overpasses (SNOs) Predictions

Prediction of SNOs between GOES-16 and NOAA-20 Satellite Orbit:

Table of predicted SNOs for the next 14.0 days since TLE Epoch: 10/18/2019
Index Date Time (GOES-16) GOES-16 Lat,Lon NOAA-20 Lat,Lon Distance(km) Time Diff (sec)
1 10/19/2019 06:38:10 0.01, -75.20 0.60, -77.97 314.81 80
2 10/20/2019 06:16:46 -0.00, -75.20 -0.41, -73.43 201.17 80
3 10/21/2019 18:38:42 0.00, -75.21 -0.79, -78.74 402.51 80
4 10/22/2019 18:22:38 0.01, -75.21 0.22, -74.21 114.03 80
5 10/24/2019 06:44:26 -0.01, -75.21 0.95, -79.48 486.59 80
6 10/25/2019 06:23:02 -0.01, -75.21 -0.06, -74.95 30.31 80
7 10/27/2019 18:26:13 -0.02, -75.24 -0.12, -75.72 54.22 80
8 10/28/2019 18:10:09 -0.02, -75.25 0.89, -71.19 463.39 80
9 10/30/2019 06:31:57 0.02, -75.27 0.28, -76.46 135.79 80
10 10/31/2019 06:10:33 0.02, -75.28 -0.73, -71.93 381.85 80
11 11/01/2019 18:35:09 -0.02, -75.31 -0.45, -77.23 219.62 80




NCC Satellite Simultaneous Nadir Overpasses (SNOs) Prediction Service
